Weather History for KFZY - April, 2013

Change the Weather History Date:

Thursday, April 4, 2013

  Actual Average (KSYR) Record (KSYR)
Temperature  
Mean Temperature 40 °F 42 °F  
Max Temperature 54 °F 52 °F 78 °F (1950)
Min Temperature 26 °F 32 °F 10 °F (1954)
Degree Days  
Heating Degree Days 25 23  
Month to date heating degree days 94  
Since 1 July heating degree days 5882  
Cooling Degree Days 0 0  
Month to date cooling degree days 0  
Year to date cooling degree days 0  
Moisture  
Dew Point 20 °F    
Average Humidity 53    
Maximum Humidity 74    
Minimum Humidity 26    
Precipitation  
Precipitation 0.00 in 0.11 in 1.21 in (1973)
Month to date precipitation 0.45  
Year to date precipitation 7.97  
Snow  
Snow 0.00 in 0.20 in 7.10 in (1975)
Month to date snowfall 0.9  
Since 1 July snowfall 120.8  
Snow Depth -    
Sea Level Pressure  
Sea Level Pressure 30.19 in    
Wind  
Wind Speed 7 mph (SW)    
Max Wind Speed 15 mph    
Max Gust Speed 22 mph    
Visibility 10 miles    
Events      
T = Trace of Precipitation, MM = Missing Value Source: NWS Daily Summary

Daily Weather History Graph

Daily Weather History Graph

Search for Another Location

Airport or City:

Trip Planner

Search our weather history database for the weather conditions in past years. The results will help you decide how hot, cold, wet, or windy it might be!

Date:

Astronomy

Apr. 04, 2013 Rise Set
Actual Time 6:41 AM EDT 7:35 PM EDT
Civil Twilight 6:12 AM EDT 8:04 PM EDT
Nautical Twilight 5:38 AM EDT 8:39 PM EDT
Astronomical Twilight 5:02 AM EDT 9:15 PM EDT
Moon 3:16 AM EDT (4/4) 1:42 PM EDT (4/4)
Length of Visible Light 13h 52m
Length of Day
12h 54m
Waning Crescent, 34% of the Moon is Illuminated
Apr 4
Waning Crescent
Apr 10
New
Apr 18
First Quarter
Apr 25
Full
May 2
Last Quarter

Hourly Weather History & Observations

Time (EDT) Temp. Windchill Dew Point Humidity Pressure Visibility Wind Dir Wind Speed Gust Speed Precip Events Conditions
12:54 AM 32.0 °F 23.6 °F 19.9 °F 61% 30.33 in 10.0 mi WNW 10.4 mph - N/A   Partly Cloudy
1:54 AM 30.0 °F 21.1 °F 19.9 °F 66% 30.33 in 10.0 mi WNW 10.4 mph - N/A   Clear
2:54 AM 28.9 °F 22.8 °F 19.9 °F 69% 30.32 in 10.0 mi WNW 5.8 mph - N/A   Clear
3:54 AM 28.0 °F 24.2 °F 19.9 °F 72% 30.32 in 10.0 mi WSW 3.5 mph - N/A   Mostly Cloudy
4:02 AM 28.4 °F 24.6 °F 19.4 °F 69% 30.31 in 10.0 mi WSW 3.5 mph - N/A   Scattered Clouds
4:21 AM 28.4 °F - 21.2 °F 74% 30.31 in 10.0 mi Calm Calm - N/A   Mostly Cloudy
4:54 AM 30.0 °F 24.1 °F 21.9 °F 72% 30.32 in 10.0 mi WSW 5.8 mph - N/A   Overcast
5:54 AM 28.9 °F 22.8 °F 21.0 °F 72% 30.33 in 10.0 mi SSW 5.8 mph - N/A   Overcast
6:54 AM 28.0 °F 20.0 °F 18.0 °F 66% 30.35 in 10.0 mi SW 8.1 mph - N/A   Mostly Cloudy
7:34 AM 26.6 °F 21.2 °F 17.6 °F 69% 30.33 in 10.0 mi SSW 4.6 mph - N/A   Scattered Clouds
7:54 AM 28.9 °F 22.8 °F 18.0 °F 64% 30.34 in 10.0 mi SSW 5.8 mph - N/A   Clear
8:54 AM 30.9 °F 24.3 °F 18.0 °F 59% 30.33 in 10.0 mi SSW 6.9 mph - N/A   Clear
9:54 AM 34.0 °F 26.6 °F 19.0 °F 54% 30.32 in 10.0 mi South 9.2 mph - N/A   Clear
10:54 AM 36.0 °F - 18.0 °F 48% 30.28 in 10.0 mi Calm Calm - N/A   Clear
11:54 AM 37.9 °F 32.1 °F 19.0 °F 47% 30.25 in 10.0 mi SW 8.1 mph - N/A   Clear
12:54 PM 41.0 °F 35.2 °F 19.0 °F 41% 30.20 in 10.0 mi SSE 9.2 mph 16.1 mph N/A   Clear
1:54 PM 45.0 °F 38.2 °F 18.0 °F 34% 30.16 in 10.0 mi SW 15.0 mph 18.4 mph N/A   Clear
2:54 PM 48.0 °F - 19.0 °F 32% 30.11 in 10.0 mi SSW 9.2 mph - N/A   Clear
3:54 PM 50.0 °F - 19.9 °F 31% 30.06 in 10.0 mi SSW 9.2 mph 18.4 mph N/A   Clear
4:54 PM 53.1 °F - 19.9 °F 27% 30.03 in 10.0 mi SSW 12.7 mph 21.9 mph N/A   Clear
5:54 PM 54.0 °F - 19.9 °F 26% 30.00 in 10.0 mi SSW 8.1 mph 18.4 mph N/A   Clear
6:54 PM 53.1 °F - 19.0 °F 26% 29.99 in 10.0 mi SSW 6.9 mph - N/A   Clear
7:54 PM 50.0 °F - 18.0 °F 28% 29.98 in 10.0 mi WSW 3.5 mph - N/A   Clear
8:54 PM 42.1 °F - 21.0 °F 43% 29.97 in 10.0 mi Calm Calm - N/A   Clear
9:54 PM 36.0 °F - 25.0 °F 64% 29.96 in 10.0 mi Calm Calm - N/A   Clear
10:54 PM 34.0 °F - 21.9 °F 61% 29.94 in 10.0 mi Calm Calm - N/A   Clear
11:54 PM 37.9 °F 35.5 °F 21.0 °F 51% 29.93 in 10.0 mi SW 3.5 mph - N/A   Clear